Year,Month,Day,Hour,Minute,Value (Times are PST for temperature in C)
2013,08,10,00,00,19.80
2013,08,10,00,01,19.80
2013,08,10,00,02,19.80
2013,08,10,00,03,19.90
2013,08,10,00,04,19.90
2013,08,10,00,05,19.90
2013,08,10,00,06,19.90
2013,08,10,00,07,19.90
2013,08,10,00,08,19.80
2013,08,10,00,09,19.80
2013,08,10,00,10,19.80
2013,08,10,00,11,19.80
2013,08,10,00,12,19.80
2013,08,10,00,13,19.80
2013,08,10,00,14,19.80
2013,08,10,00,15,19.80
2013,08,10,00,16,19.80
2013,08,10,00,17,19.80
2013,08,10,00,18,19.80
2013,08,10,00,19,19.90
2013,08,10,00,20,19.90
2013,08,10,00,21,20.00
2013,08,10,00,22,20.00
2013,08,10,00,23,20.00
2013,08,10,00,24,20.00
2013,08,10,00,25,20.00
2013,08,10,00,26,20.00
2013,08,10,00,27,19.90
2013,08,10,00,28,19.90
2013,08,10,00,29,19.90
2013,08,10,00,30,19.90
2013,08,10,00,31,19.80
2013,08,10,00,32,19.80
2013,08,10,00,33,19.80
2013,08,10,00,34,19.80
2013,08,10,00,35,19.80
2013,08,10,00,36,19.70
2013,08,10,00,37,19.70
2013,08,10,00,38,19.70
2013,08,10,00,39,19.70
2013,08,10,00,40,19.60
2013,08,10,00,41,19.60
2013,08,10,00,42,19.60
2013,08,10,00,43,19.60
2013,08,10,00,44,19.60
2013,08,10,00,45,19.60
2013,08,10,00,46,19.60
2013,08,10,00,47,19.70
2013,08,10,00,48,19.70
2013,08,10,00,49,19.70
2013,08,10,00,50,19.70
2013,08,10,00,51,19.80
2013,08,10,00,52,19.80
2013,08,10,00,53,19.80
2013,08,10,00,54,19.80
2013,08,10,00,55,19.70
2013,08,10,00,56,19.70
2013,08,10,00,57,19.60
2013,08,10,00,58,19.60
2013,08,10,00,59,19.60
2013,08,10,01,00,19.50
2013,08,10,01,01,19.50
2013,08,10,01,02,19.40
2013,08,10,01,03,19.40
2013,08,10,01,04,19.40
2013,08,10,01,05,19.40
2013,08,10,01,06,19.40
2013,08,10,01,07,19.40
2013,08,10,01,08,19.40
2013,08,10,01,09,19.40
2013,08,10,01,10,19.50
2013,08,10,01,11,19.50
2013,08,10,01,12,19.50
2013,08,10,01,13,19.60
2013,08,10,01,14,19.60
2013,08,10,01,15,19.70
2013,08,10,01,16,19.70
2013,08,10,01,17,19.80
2013,08,10,01,18,19.80
2013,08,10,01,19,19.90
2013,08,10,01,20,19.90
2013,08,10,01,21,20.00
2013,08,10,01,22,20.00
2013,08,10,01,23,20.00
2013,08,10,01,24,20.00
2013,08,10,01,25,20.10
2013,08,10,01,26,20.10
2013,08,10,01,27,20.10
2013,08,10,01,28,20.20
2013,08,10,01,29,20.20
2013,08,10,01,30,20.20
2013,08,10,01,31,20.20
2013,08,10,01,32,20.10
2013,08,10,01,33,20.10
2013,08,10,01,34,20.00
2013,08,10,01,35,20.00
2013,08,10,01,36,19.90
2013,08,10,01,37,19.80
2013,08,10,01,38,19.80
2013,08,10,01,39,19.70
2013,08,10,01,40,19.70
2013,08,10,01,41,19.70
2013,08,10,01,42,19.60
2013,08,10,01,43,19.60
2013,08,10,01,44,19.60
2013,08,10,01,45,19.50
2013,08,10,01,46,19.50
2013,08,10,01,47,19.40
2013,08,10,01,48,19.40
2013,08,10,01,49,19.30
2013,08,10,01,50,19.30
2013,08,10,01,51,19.20
2013,08,10,01,52,19.10
2013,08,10,01,53,19.10
2013,08,10,01,54,19.10
2013,08,10,01,55,19.10
2013,08,10,01,56,19.10
2013,08,10,01,57,19.10
2013,08,10,01,58,19.00
2013,08,10,01,59,19.00
2013,08,10,02,00,18.90
2013,08,10,02,01,18.90
2013,08,10,02,02,18.90
2013,08,10,02,03,19.00
2013,08,10,02,04,19.00
2013,08,10,02,05,19.10
2013,08,10,02,06,19.10
2013,08,10,02,07,19.20
2013,08,10,02,08,19.20
2013,08,10,02,09,19.20
2013,08,10,02,10,19.20
2013,08,10,02,11,19.20
2013,08,10,02,12,19.10
2013,08,10,02,13,19.10
2013,08,10,02,14,19.10
2013,08,10,02,15,19.10
2013,08,10,02,16,19.10
2013,08,10,02,17,19.10
2013,08,10,02,18,19.10
2013,08,10,02,19,19.10
2013,08,10,02,20,19.10
2013,08,10,02,21,19.20
2013,08,10,02,22,19.20
2013,08,10,02,23,19.20
2013,08,10,02,24,19.20
2013,08,10,02,25,19.20
2013,08,10,02,26,19.20
2013,08,10,02,27,19.20
2013,08,10,02,28,19.20
2013,08,10,02,29,19.20
2013,08,10,02,30,19.20
2013,08,10,02,31,19.20
2013,08,10,02,32,19.20
2013,08,10,02,33,19.20
2013,08,10,02,34,19.20
2013,08,10,02,35,19.20
2013,08,10,02,36,19.20
2013,08,10,02,37,19.20
2013,08,10,02,38,19.10
2013,08,10,02,39,19.10
2013,08,10,02,40,19.10
2013,08,10,02,41,19.10
2013,08,10,02,42,19.10
2013,08,10,02,43,19.00
2013,08,10,02,44,19.00
2013,08,10,02,45,19.00
2013,08,10,02,46,18.90
2013,08,10,02,47,18.90
2013,08,10,02,48,18.90
2013,08,10,02,49,18.90
2013,08,10,02,50,18.90
2013,08,10,02,51,18.80
2013,08,10,02,52,18.80
2013,08,10,02,53,18.70
2013,08,10,02,54,18.70
2013,08,10,02,55,18.60
2013,08,10,02,56,18.60
2013,08,10,02,57,18.50
2013,08,10,02,58,18.40
2013,08,10,02,59,18.40
2013,08,10,03,00,18.40
2013,08,10,03,01,18.40
2013,08,10,03,02,18.30
2013,08,10,03,03,18.30
2013,08,10,03,04,18.30
2013,08,10,03,05,18.30
2013,08,10,03,06,18.30
2013,08,10,03,07,18.30
2013,08,10,03,08,18.30
2013,08,10,03,09,18.30
2013,08,10,03,10,18.30
2013,08,10,03,11,18.30
2013,08,10,03,12,18.40
2013,08,10,03,13,18.40
2013,08,10,03,14,18.40
2013,08,10,03,15,18.40
2013,08,10,03,16,18.40
2013,08,10,03,17,18.40
2013,08,10,03,18,18.40
2013,08,10,03,19,18.30
2013,08,10,03,20,18.30
2013,08,10,03,21,18.30
2013,08,10,03,22,18.30
2013,08,10,03,23,18.30
2013,08,10,03,24,18.20
2013,08,10,03,25,18.20
2013,08,10,03,26,18.20
2013,08,10,03,27,18.30
2013,08,10,03,28,18.30
2013,08,10,03,29,18.30
2013,08,10,03,30,18.30
2013,08,10,03,31,18.30
2013,08,10,03,32,18.30
2013,08,10,03,33,18.20
2013,08,10,03,34,18.20
2013,08,10,03,35,18.20
2013,08,10,03,36,18.10
2013,08,10,03,37,18.10
2013,08,10,03,38,18.00
2013,08,10,03,39,18.00
2013,08,10,03,40,18.00
2013,08,10,03,41,17.90
2013,08,10,03,42,17.90
2013,08,10,03,43,17.90
2013,08,10,03,44,17.90
2013,08,10,03,45,17.80
2013,08,10,03,46,17.80
2013,08,10,03,47,17.80
2013,08,10,03,48,17.80
2013,08,10,03,49,17.80
2013,08,10,03,50,17.80
2013,08,10,03,51,17.80
2013,08,10,03,52,17.80
2013,08,10,03,53,17.80
2013,08,10,03,54,17.80
2013,08,10,03,55,17.70
2013,08,10,03,56,17.70
2013,08,10,03,57,17.70
2013,08,10,03,58,17.70
2013,08,10,03,59,17.70
2013,08,10,04,00,17.60
2013,08,10,04,01,17.60
2013,08,10,04,02,17.60
2013,08,10,04,03,17.60
2013,08,10,04,04,17.60
2013,08,10,04,05,17.60
2013,08,10,04,06,17.60
2013,08,10,04,07,17.50
2013,08,10,04,08,17.50
2013,08,10,04,09,17.50
2013,08,10,04,10,17.40
2013,08,10,04,11,17.40
2013,08,10,04,12,17.40
2013,08,10,04,13,17.40
2013,08,10,04,14,17.40
2013,08,10,04,15,17.40
2013,08,10,04,16,17.30
2013,08,10,04,17,17.30
2013,08,10,04,18,17.30
2013,08,10,04,19,17.30
2013,08,10,04,20,17.30
2013,08,10,04,21,17.30
2013,08,10,04,22,17.30
2013,08,10,04,23,17.20
2013,08,10,04,24,17.20
2013,08,10,04,25,17.20
2013,08,10,04,26,17.20
2013,08,10,04,27,17.10
2013,08,10,04,28,17.10
2013,08,10,04,29,17.10
2013,08,10,04,30,17.10
2013,08,10,04,31,17.10
2013,08,10,04,32,17.10
2013,08,10,04,33,17.00
2013,08,10,04,34,17.00
2013,08,10,04,35,17.00
2013,08,10,04,36,16.90
2013,08,10,04,37,16.90
2013,08,10,04,38,16.80
2013,08,10,04,39,16.80
2013,08,10,04,40,16.70
2013,08,10,04,41,16.70
2013,08,10,04,42,16.70
2013,08,10,04,43,16.60
2013,08,10,04,44,16.60
2013,08,10,04,45,16.60
2013,08,10,04,46,16.60
2013,08,10,04,47,16.60
2013,08,10,04,48,16.60
2013,08,10,04,49,16.60
2013,08,10,04,50,16.60
2013,08,10,04,51,16.60
2013,08,10,04,52,16.60
2013,08,10,04,53,16.60
2013,08,10,04,54,16.60
2013,08,10,04,55,16.60
2013,08,10,04,56,16.60
2013,08,10,04,57,16.60
2013,08,10,04,58,16.60
2013,08,10,04,59,16.60
2013,08,10,05,00,16.70
2013,08,10,05,01,16.70
2013,08,10,05,02,16.70
2013,08,10,05,03,16.80
2013,08,10,05,04,16.90
2013,08,10,05,05,16.90
2013,08,10,05,06,17.00
2013,08,10,05,07,17.10
2013,08,10,05,08,17.10
2013,08,10,05,09,17.20
2013,08,10,05,10,17.20
2013,08,10,05,11,17.20
2013,08,10,05,12,17.20
2013,08,10,05,13,17.20
2013,08,10,05,14,17.20
2013,08,10,05,15,17.20
2013,08,10,05,16,17.20
2013,08,10,05,17,17.20
2013,08,10,05,18,17.20
2013,08,10,05,19,17.20
2013,08,10,05,20,17.10
2013,08,10,05,21,17.10
2013,08,10,05,22,17.10
2013,08,10,05,23,17.00
2013,08,10,05,24,16.90
2013,08,10,05,25,16.90
2013,08,10,05,26,16.80
2013,08,10,05,27,16.80
2013,08,10,05,28,16.70
2013,08,10,05,29,16.70
2013,08,10,05,30,16.60
2013,08,10,05,31,16.60
2013,08,10,05,32,16.60
2013,08,10,05,33,16.50
2013,08,10,05,34,16.50
2013,08,10,05,35,16.50
2013,08,10,05,36,16.40
2013,08,10,05,37,16.40
2013,08,10,05,38,16.40
2013,08,10,05,39,16.40
2013,08,10,05,40,16.40
2013,08,10,05,41,16.40
2013,08,10,05,42,16.50
2013,08,10,05,43,16.50
2013,08,10,05,44,16.60
2013,08,10,05,45,16.60
2013,08,10,05,46,16.60
2013,08,10,05,47,16.70
2013,08,10,05,48,16.70
2013,08,10,05,49,16.70
2013,08,10,05,50,16.80
2013,08,10,05,51,16.80
2013,08,10,05,52,16.90
2013,08,10,05,53,17.00
2013,08,10,05,54,17.10
2013,08,10,05,55,17.20
2013,08,10,05,56,17.30
2013,08,10,05,57,17.40
2013,08,10,05,58,17.50
2013,08,10,05,59,17.60
2013,08,10,06,00,17.70
2013,08,10,06,01,17.80
2013,08,10,06,02,17.90
2013,08,10,06,03,18.00
2013,08,10,06,04,18.00
2013,08,10,06,05,18.10
2013,08,10,06,06,18.20
2013,08,10,06,07,18.20
2013,08,10,06,08,18.20
2013,08,10,06,09,18.20
2013,08,10,06,10,18.20
2013,08,10,06,11,18.20
2013,08,10,06,12,18.20
2013,08,10,06,13,18.20
2013,08,10,06,14,18.20
2013,08,10,06,15,18.20
2013,08,10,06,16,18.20
2013,08,10,06,17,18.20
2013,08,10,06,18,18.20
2013,08,10,06,19,18.20
2013,08,10,06,20,18.20
2013,08,10,06,21,18.20
2013,08,10,06,22,18.10
2013,08,10,06,23,18.00
2013,08,10,06,24,17.90
2013,08,10,06,25,17.70
2013,08,10,06,26,17.60
2013,08,10,06,27,17.50
2013,08,10,06,28,17.40
2013,08,10,06,29,17.30
2013,08,10,06,30,17.20
2013,08,10,06,31,17.20
2013,08,10,06,32,17.20
2013,08,10,06,33,17.10
2013,08,10,06,34,17.10
2013,08,10,06,35,17.10
2013,08,10,06,36,17.10
2013,08,10,06,37,17.10
2013,08,10,06,38,17.10
2013,08,10,06,39,17.00
2013,08,10,06,40,17.00
2013,08,10,06,41,16.90
2013,08,10,06,42,16.90
2013,08,10,06,43,16.90
2013,08,10,06,44,16.80
2013,08,10,06,45,16.80
2013,08,10,06,46,16.80
2013,08,10,06,47,16.80
2013,08,10,06,48,16.80
2013,08,10,06,49,16.80
2013,08,10,06,50,16.80
2013,08,10,06,51,16.80
2013,08,10,06,52,16.80
2013,08,10,06,53,16.80
2013,08,10,06,54,16.80
2013,08,10,06,55,16.80
2013,08,10,06,56,16.80
2013,08,10,06,57,16.80
2013,08,10,06,58,16.80
2013,08,10,06,59,16.80
2013,08,10,07,00,16.80
2013,08,10,07,01,16.90
2013,08,10,07,02,16.90
2013,08,10,07,03,16.90
2013,08,10,07,04,16.90
2013,08,10,07,05,16.90
2013,08,10,07,06,16.90
2013,08,10,07,07,16.90
2013,08,10,07,08,16.90
2013,08,10,07,09,16.90
2013,08,10,07,10,16.90
2013,08,10,07,11,16.80
2013,08,10,07,12,16.90
2013,08,10,07,13,16.90
2013,08,10,07,14,16.90
2013,08,10,07,15,16.90
2013,08,10,07,16,16.90
2013,08,10,07,17,16.90
2013,08,10,07,18,16.90
2013,08,10,07,19,16.90
2013,08,10,07,20,16.90
2013,08,10,07,21,16.90
2013,08,10,07,22,17.00
2013,08,10,07,23,17.00
2013,08,10,07,24,17.00
2013,08,10,07,25,17.00
2013,08,10,07,26,17.10
2013,08,10,07,27,17.10
2013,08,10,07,28,17.10
2013,08,10,07,29,17.10
2013,08,10,07,30,17.20
2013,08,10,07,31,17.20
2013,08,10,07,32,17.20
2013,08,10,07,33,17.20
2013,08,10,07,34,17.20
2013,08,10,07,35,17.20
2013,08,10,07,36,17.30
2013,08,10,07,37,17.30
2013,08,10,07,38,17.30
2013,08,10,07,39,17.40
2013,08,10,07,40,17.40
2013,08,10,07,41,17.50
2013,08,10,07,42,17.60
2013,08,10,07,43,17.60
2013,08,10,07,44,17.70
2013,08,10,07,45,17.80
2013,08,10,07,46,17.80
2013,08,10,07,47,17.80
2013,08,10,07,48,17.80
2013,08,10,07,49,17.80
2013,08,10,07,50,17.80
2013,08,10,07,51,17.90
2013,08,10,07,52,17.90
2013,08,10,07,53,17.90
2013,08,10,07,54,18.00
2013,08,10,07,55,18.00
2013,08,10,07,56,18.00
2013,08,10,07,57,18.10
2013,08,10,07,58,18.10
2013,08,10,07,59,18.10
2013,08,10,08,00,18.20
2013,08,10,08,01,18.20
2013,08,10,08,02,18.30
2013,08,10,08,03,18.30
2013,08,10,08,04,18.40
2013,08,10,08,05,18.40
2013,08,10,08,06,18.50
2013,08,10,08,07,18.50
2013,08,10,08,08,18.60
2013,08,10,08,09,18.60
2013,08,10,08,10,18.70
2013,08,10,08,11,18.70
2013,08,10,08,12,18.70
2013,08,10,08,13,18.80
2013,08,10,08,14,18.80
2013,08,10,08,15,18.80
2013,08,10,08,16,18.90
2013,08,10,08,17,18.90
2013,08,10,08,18,19.00
2013,08,10,08,19,19.00
2013,08,10,08,20,19.10
2013,08,10,08,21,19.10
2013,08,10,08,22,19.20
2013,08,10,08,23,19.20
2013,08,10,08,24,19.30
2013,08,10,08,25,19.40
2013,08,10,08,26,19.40
2013,08,10,08,27,19.50
2013,08,10,08,28,19.50
2013,08,10,08,29,19.60
2013,08,10,08,30,19.60
2013,08,10,08,31,19.70
2013,08,10,08,32,19.70
2013,08,10,08,33,19.80
2013,08,10,08,34,19.90
2013,08,10,08,35,19.90
2013,08,10,08,36,20.00
2013,08,10,08,37,20.00
2013,08,10,08,38,20.10
2013,08,10,08,39,20.10
2013,08,10,08,40,20.10
2013,08,10,08,41,20.00
2013,08,10,08,42,20.00
2013,08,10,08,43,20.00
2013,08,10,08,44,20.00
2013,08,10,08,45,20.00
2013,08,10,08,46,20.00
2013,08,10,08,47,20.00
2013,08,10,08,48,20.00
2013,08,10,08,49,20.10
2013,08,10,08,50,20.10
2013,08,10,08,51,20.10
2013,08,10,08,52,20.10
2013,08,10,08,53,20.10
2013,08,10,08,54,20.20
2013,08,10,08,55,20.20
2013,08,10,08,56,20.20
2013,08,10,08,57,20.20
2013,08,10,08,58,20.20
2013,08,10,08,59,20.10
2013,08,10,09,00,20.10
2013,08,10,09,01,20.10
2013,08,10,09,02,20.00
2013,08,10,09,03,20.00
2013,08,10,09,04,20.00
2013,08,10,09,05,19.90
2013,08,10,09,06,19.90
2013,08,10,09,07,19.90
2013,08,10,09,08,19.90
2013,08,10,09,09,19.90
2013,08,10,09,10,19.90
2013,08,10,09,11,19.90
2013,08,10,09,12,19.90
2013,08,10,09,13,20.00
2013,08,10,09,14,20.00
2013,08,10,09,15,20.00
2013,08,10,09,16,20.00
2013,08,10,09,17,20.00
2013,08,10,09,18,20.00
2013,08,10,09,19,20.10
2013,08,10,09,20,20.10
2013,08,10,09,21,20.10
2013,08,10,09,22,20.10
2013,08,10,09,23,20.10
2013,08,10,09,24,20.20
2013,08,10,09,25,20.20
2013,08,10,09,26,20.20
2013,08,10,09,27,20.20
2013,08,10,09,28,20.20
2013,08,10,09,29,20.30
2013,08,10,09,30,20.30
2013,08,10,09,31,20.30
2013,08,10,09,32,20.30
2013,08,10,09,33,20.30
2013,08,10,09,34,20.30
2013,08,10,09,35,20.30
2013,08,10,09,36,20.30
2013,08,10,09,37,20.30
2013,08,10,09,38,20.30
2013,08,10,09,39,20.30
2013,08,10,09,40,20.30
2013,08,10,09,41,20.30
2013,08,10,09,42,20.30
2013,08,10,09,43,20.30
2013,08,10,09,44,20.30
2013,08,10,09,45,20.30
2013,08,10,09,46,20.30
2013,08,10,09,47,20.30
2013,08,10,09,48,20.30
2013,08,10,09,49,20.30
2013,08,10,09,50,20.30
2013,08,10,09,51,20.30
2013,08,10,09,52,20.30
2013,08,10,09,53,20.30
2013,08,10,09,54,20.30
2013,08,10,09,55,20.40
2013,08,10,09,56,20.40
2013,08,10,09,57,20.40
2013,08,10,09,58,20.40
2013,08,10,09,59,20.40
2013,08,10,10,00,20.40
2013,08,10,10,01,20.30
2013,08,10,10,02,20.30
2013,08,10,10,03,20.20
2013,08,10,10,04,20.20
2013,08,10,10,05,20.20
2013,08,10,10,06,20.10
2013,08,10,10,07,20.10
2013,08,10,10,08,20.10
2013,08,10,10,09,20.00
2013,08,10,10,10,19.90
2013,08,10,10,11,19.90
2013,08,10,10,12,19.80
2013,08,10,10,13,19.80
2013,08,10,10,14,19.80
2013,08,10,10,15,19.80
2013,08,10,10,16,19.80
2013,08,10,10,17,19.80
2013,08,10,10,18,19.80
2013,08,10,10,19,19.80
2013,08,10,10,20,19.80
2013,08,10,10,21,19.90
2013,08,10,10,22,19.90
2013,08,10,10,23,19.90
2013,08,10,10,24,20.00
2013,08,10,10,25,20.00
2013,08,10,10,26,20.10
2013,08,10,10,27,20.10
2013,08,10,10,28,20.20
2013,08,10,10,29,20.20
2013,08,10,10,30,20.30
2013,08,10,10,31,20.40
2013,08,10,10,32,20.40
2013,08,10,10,33,20.50
2013,08,10,10,34,20.60
2013,08,10,10,35,20.60
2013,08,10,10,36,20.70
2013,08,10,10,37,20.70
2013,08,10,10,38,20.80
2013,08,10,10,39,20.80
2013,08,10,10,40,20.80
2013,08,10,10,41,20.50
2013,08,10,10,42,20.20
2013,08,10,10,43,20.00
2013,08,10,10,44,19.90
2013,08,10,10,45,19.90
2013,08,10,10,46,19.80
2013,08,10,10,47,19.60
2013,08,10,10,48,19.50
2013,08,10,10,49,19.50
2013,08,10,10,50,19.40
2013,08,10,10,51,19.30
2013,08,10,10,52,19.20
2013,08,10,10,53,19.10
2013,08,10,10,54,19.00
2013,08,10,10,55,19.00
2013,08,10,10,56,19.10
2013,08,10,10,57,19.10
2013,08,10,10,58,19.10
2013,08,10,10,59,19.20
2013,08,10,11,00,19.20
2013,08,10,11,01,19.20
2013,08,10,11,02,19.20
2013,08,10,11,03,19.30
2013,08,10,11,04,19.30
2013,08,10,11,05,19.30
2013,08,10,11,06,19.40
2013,08,10,11,07,19.40
2013,08,10,11,08,19.50
2013,08,10,11,09,19.60
2013,08,10,11,10,19.70
2013,08,10,11,11,19.80
2013,08,10,11,12,19.90
2013,08,10,11,13,20.00
2013,08,10,11,14,20.10
2013,08,10,11,15,20.10
2013,08,10,11,16,20.20
2013,08,10,11,17,20.30
2013,08,10,11,18,20.40
2013,08,10,11,19,20.40
2013,08,10,11,20,20.50
2013,08,10,11,21,20.60
2013,08,10,11,22,20.70
2013,08,10,11,23,20.80
2013,08,10,11,24,20.80
2013,08,10,11,25,20.70
2013,08,10,11,26,20.70
2013,08,10,11,27,20.70
2013,08,10,11,28,20.60
2013,08,10,11,29,20.60
2013,08,10,11,30,20.60
2013,08,10,11,31,20.60
2013,08,10,11,32,20.60
2013,08,10,11,33,20.60
2013,08,10,11,34,20.70
2013,08,10,11,35,20.70
2013,08,10,11,36,20.60
2013,08,10,11,37,20.60
2013,08,10,11,38,20.60
2013,08,10,11,39,20.60
2013,08,10,11,40,20.50
2013,08,10,11,41,20.50
2013,08,10,11,42,20.50
2013,08,10,11,43,20.50
2013,08,10,11,44,20.50
2013,08,10,11,45,20.50
2013,08,10,11,46,20.40
2013,08,10,11,47,20.40
2013,08,10,11,48,20.40
2013,08,10,11,49,20.40
2013,08,10,11,50,20.40
2013,08,10,11,51,20.40
2013,08,10,11,52,20.40
2013,08,10,11,53,20.40
2013,08,10,11,54,20.30
2013,08,10,11,55,20.30
2013,08,10,11,56,20.30
2013,08,10,11,57,20.40
2013,08,10,11,58,20.40
2013,08,10,11,59,20.40
2013,08,10,12,00,20.50
2013,08,10,12,01,20.50
2013,08,10,12,02,20.60
2013,08,10,12,03,20.60
2013,08,10,12,04,20.50
2013,08,10,12,05,20.50
2013,08,10,12,06,20.50
2013,08,10,12,07,20.50
2013,08,10,12,08,20.50
2013,08,10,12,09,20.60
2013,08,10,12,10,20.60
2013,08,10,12,11,20.60
2013,08,10,12,12,20.60
2013,08,10,12,13,20.60
2013,08,10,12,14,20.50
2013,08,10,12,15,20.50
2013,08,10,12,16,20.50
2013,08,10,12,17,20.50
2013,08,10,12,18,20.50
2013,08,10,12,19,20.50
2013,08,10,12,20,20.50
2013,08,10,12,21,20.50
2013,08,10,12,22,20.50
2013,08,10,12,23,20.50
2013,08,10,12,24,20.50
2013,08,10,12,25,20.40
2013,08,10,12,26,20.40
2013,08,10,12,27,20.40
2013,08,10,12,28,20.50
2013,08,10,12,29,20.50
2013,08,10,12,30,20.50
2013,08,10,12,31,20.60
2013,08,10,12,32,20.60
2013,08,10,12,33,20.60
2013,08,10,12,34,20.70
2013,08,10,12,35,20.70
2013,08,10,12,36,20.70
2013,08,10,12,37,20.70
2013,08,10,12,38,20.80
2013,08,10,12,39,20.80
2013,08,10,12,40,20.80
2013,08,10,12,41,20.80
2013,08,10,12,42,20.80
2013,08,10,12,43,20.90
2013,08,10,12,44,20.90
2013,08,10,12,45,20.90
2013,08,10,12,46,20.90
2013,08,10,12,47,20.90
2013,08,10,12,48,20.90
2013,08,10,12,49,20.90
2013,08,10,12,50,20.80
2013,08,10,12,51,20.80
2013,08,10,12,52,20.80
2013,08,10,12,53,20.80
2013,08,10,12,54,20.80
2013,08,10,12,55,20.80
2013,08,10,12,56,20.80
2013,08,10,12,57,20.90
2013,08,10,12,58,20.90
2013,08,10,12,59,20.90
2013,08,10,13,00,20.90
2013,08,10,13,01,21.00
2013,08,10,13,02,21.00
2013,08,10,13,03,21.00
2013,08,10,13,04,21.00
2013,08,10,13,05,20.90
2013,08,10,13,06,20.90
2013,08,10,13,07,20.90
2013,08,10,13,08,20.80
2013,08,10,13,09,20.80
2013,08,10,13,10,20.80
2013,08,10,13,11,20.90
2013,08,10,13,12,20.90
2013,08,10,13,13,20.90
2013,08,10,13,14,20.90
2013,08,10,13,15,20.90
2013,08,10,13,16,20.90
2013,08,10,13,17,21.00
2013,08,10,13,18,21.00
2013,08,10,13,19,21.00
2013,08,10,13,20,20.90
2013,08,10,13,21,20.90
2013,08,10,13,22,20.90
2013,08,10,13,23,20.80
2013,08,10,13,24,20.80
2013,08,10,13,25,20.80
2013,08,10,13,26,20.80
2013,08,10,13,27,20.70
2013,08,10,13,28,20.70
2013,08,10,13,29,20.60
2013,08,10,13,30,20.50
2013,08,10,13,31,20.40
2013,08,10,13,32,20.40
2013,08,10,13,33,20.30
2013,08,10,13,34,20.30
2013,08,10,13,35,20.30
2013,08,10,13,36,20.30
2013,08,10,13,37,20.30
2013,08,10,13,38,20.30
2013,08,10,13,39,20.30
2013,08,10,13,40,20.30
2013,08,10,13,41,20.30
2013,08,10,13,42,20.30
2013,08,10,13,43,20.30
2013,08,10,13,44,20.30
2013,08,10,13,45,20.30
2013,08,10,13,46,20.30
2013,08,10,13,47,20.30
2013,08,10,13,48,20.30
2013,08,10,13,49,20.30
2013,08,10,13,50,20.30
2013,08,10,13,51,20.30
2013,08,10,13,52,20.40
2013,08,10,13,53,20.40
2013,08,10,13,54,20.40
2013,08,10,13,55,20.50
2013,08,10,13,56,20.50
2013,08,10,13,57,20.60
2013,08,10,13,58,20.60
2013,08,10,13,59,20.70
2013,08,10,14,00,20.70
2013,08,10,14,01,20.80
2013,08,10,14,02,20.80
2013,08,10,14,03,20.90
2013,08,10,14,04,20.90
2013,08,10,14,05,21.00
2013,08,10,14,06,21.00
2013,08,10,14,07,21.10
2013,08,10,14,08,21.10
2013,08,10,14,09,21.20
2013,08,10,14,10,21.20
2013,08,10,14,11,21.20
2013,08,10,14,12,21.20
2013,08,10,14,13,21.20
2013,08,10,14,14,21.10
2013,08,10,14,15,21.10
2013,08,10,14,16,21.10
2013,08,10,14,17,21.10
2013,08,10,14,18,21.10
2013,08,10,14,19,21.20
2013,08,10,14,20,21.20
2013,08,10,14,21,21.10
2013,08,10,14,22,21.00
2013,08,10,14,23,20.90
2013,08,10,14,24,20.70
2013,08,10,14,25,20.70
2013,08,10,14,26,20.60
2013,08,10,14,27,20.50
2013,08,10,14,28,20.40
2013,08,10,14,29,20.40
2013,08,10,14,30,20.40
2013,08,10,14,31,20.50
2013,08,10,14,32,20.60
2013,08,10,14,33,20.70
2013,08,10,14,34,20.70
2013,08,10,14,35,20.70
2013,08,10,14,36,20.60
2013,08,10,14,37,20.60
2013,08,10,14,38,20.60
2013,08,10,14,39,20.60
2013,08,10,14,40,20.60
2013,08,10,14,41,20.70
2013,08,10,14,42,20.70
2013,08,10,14,43,20.80
2013,08,10,14,44,20.70
2013,08,10,14,45,20.70
2013,08,10,14,46,20.70
2013,08,10,14,47,20.60
2013,08,10,14,48,20.60
2013,08,10,14,49,20.60
2013,08,10,14,50,20.60
2013,08,10,14,51,20.60
2013,08,10,14,52,20.60
2013,08,10,14,53,20.60
2013,08,10,14,54,20.70
2013,08,10,14,55,20.60
2013,08,10,14,56,20.60
2013,08,10,14,57,20.60
2013,08,10,14,58,20.50
2013,08,10,14,59,20.40
2013,08,10,15,00,20.40
2013,08,10,15,01,20.40
2013,08,10,15,02,20.30
2013,08,10,15,03,20.20
2013,08,10,15,04,20.20
2013,08,10,15,05,20.20
2013,08,10,15,06,20.20
2013,08,10,15,07,20.20
2013,08,10,15,08,20.20
2013,08,10,15,09,20.30
2013,08,10,15,10,20.30
2013,08,10,15,11,20.40
2013,08,10,15,12,20.40
2013,08,10,15,13,20.50
2013,08,10,15,14,20.50
2013,08,10,15,15,20.60
2013,08,10,15,16,20.70
2013,08,10,15,17,20.80
2013,08,10,15,18,20.90
2013,08,10,15,19,21.00
2013,08,10,15,20,21.10
2013,08,10,15,21,21.20
2013,08,10,15,22,21.30
2013,08,10,15,23,21.40
2013,08,10,15,24,21.40
2013,08,10,15,25,21.50
2013,08,10,15,26,21.50
2013,08,10,15,27,21.60
2013,08,10,15,28,21.70
2013,08,10,15,29,21.90
2013,08,10,15,30,22.00
2013,08,10,15,31,22.10
2013,08,10,15,32,22.10
2013,08,10,15,33,22.20
2013,08,10,15,34,22.20
2013,08,10,15,35,22.20
2013,08,10,15,36,22.10
2013,08,10,15,37,22.00
2013,08,10,15,38,21.90
2013,08,10,15,39,21.90
2013,08,10,15,40,21.80
2013,08,10,15,41,21.80
2013,08,10,15,42,21.80
2013,08,10,15,43,21.80
2013,08,10,15,44,21.80
2013,08,10,15,45,21.80
2013,08,10,15,46,21.80
2013,08,10,15,47,21.80
2013,08,10,15,48,21.80
2013,08,10,15,49,21.80
2013,08,10,15,50,21.80
2013,08,10,15,51,21.80
2013,08,10,15,52,21.80
2013,08,10,15,53,21.80
2013,08,10,15,54,21.80
2013,08,10,15,55,21.90
2013,08,10,15,56,22.00
2013,08,10,15,57,22.10
2013,08,10,15,58,22.30
2013,08,10,15,59,22.40
2013,08,10,16,00,22.40
2013,08,10,16,01,22.30
2013,08,10,16,02,22.20
2013,08,10,16,03,22.30
2013,08,10,16,04,22.30
2013,08,10,16,05,22.40
2013,08,10,16,06,22.40
2013,08,10,16,07,22.40
2013,08,10,16,08,22.30
2013,08,10,16,09,22.30
2013,08,10,16,10,22.40
2013,08,10,16,11,22.40
2013,08,10,16,12,22.40
2013,08,10,16,13,22.20
2013,08,10,16,14,22.20
2013,08,10,16,15,22.20
2013,08,10,16,16,22.20
2013,08,10,16,17,22.10
2013,08,10,16,18,22.10
2013,08,10,16,19,22.00
2013,08,10,16,20,21.90
2013,08,10,16,21,21.90
2013,08,10,16,22,21.80
2013,08,10,16,23,21.80
2013,08,10,16,24,21.80
2013,08,10,16,25,21.80
2013,08,10,16,26,21.80
2013,08,10,16,27,21.80
2013,08,10,16,28,21.90
2013,08,10,16,29,22.00
2013,08,10,16,30,22.10
2013,08,10,16,31,22.30
2013,08,10,16,32,22.40
2013,08,10,16,33,22.40
2013,08,10,16,34,22.40
2013,08,10,16,35,22.40
2013,08,10,16,36,22.40
2013,08,10,16,37,22.40
2013,08,10,16,38,22.30
2013,08,10,16,39,22.30
2013,08,10,16,40,22.40
2013,08,10,16,41,22.50
2013,08,10,16,42,22.50
2013,08,10,16,43,22.50
2013,08,10,16,44,22.50
2013,08,10,16,45,22.60
2013,08,10,16,46,22.60
2013,08,10,16,47,22.50
2013,08,10,16,48,22.40
2013,08,10,16,49,22.40
2013,08,10,16,50,22.40
2013,08,10,16,51,22.40
2013,08,10,16,52,22.50
2013,08,10,16,53,22.50
2013,08,10,16,54,22.50
2013,08,10,16,55,22.60
2013,08,10,16,56,22.60
2013,08,10,16,57,22.60
2013,08,10,16,58,22.60
2013,08,10,16,59,22.60
2013,08,10,17,00,22.60
2013,08,10,17,01,22.60
2013,08,10,17,02,22.60
2013,08,10,17,03,22.60
2013,08,10,17,04,22.60
2013,08,10,17,05,22.70
2013,08,10,17,06,22.70
2013,08,10,17,07,22.70
2013,08,10,17,08,22.80
2013,08,10,17,09,22.80
2013,08,10,17,10,22.80
2013,08,10,17,11,22.80
2013,08,10,17,12,22.80
2013,08,10,17,13,22.90
2013,08,10,17,14,23.00
2013,08,10,17,15,22.90
2013,08,10,17,16,22.90
2013,08,10,17,17,22.80
2013,08,10,17,18,22.80
2013,08,10,17,19,22.80